Other Public Products
Issued by NWS Grand Forks, ND

Home | Current Version | Previous Version | Text Only | Print | Product List | Glossary On
Versions: 1 2 3 4 5 6 7 8 9 10 11 12 13 14 15 16 17 18 19 20 21 22 23 24 25 26 27 28 29 30 31 32 33 34 35 36 37 38 39 40 41 42 43 44 45 46 47 48 49 50
000
FPUS83 KFGF 190410
OPUFGF
PRAIRIE TO PINES WEATHER ROUNDUP
NATIONAL WEATHER SERVICE EASTERN NORTH DAKOTA/GRAND FORKS ND
1000 PM CST THU DEC 18 2014

 **SATELLITE DATA USED TO AUGMENT SKY COVER AT AUTOMATED STATIONS**
 *****  WEATHER ACROSS EASTERN NORTH DAKOTA  *****

CITY           SKY/WX    TMP DP  RH WIND       PRES   REMARKS
GRAND FORKS    CLOUDY    20  16  84 S12       30.14F WCI   8
GRAND FORKS AF CLOUDY    19  19  99 S8        30.14S WCI   9
GRAND CITY NWS NOT AVBL
BUXTON         NOT AVBL
DEVILS LAKE    CLOUDY    21  14  73 S10       30.02F WCI  10
FARGO          CLOUDY    21  16  81 S13       30.16S WCI   9
WAHPETON ARPT  CLOUDY    21  18  86 S8        30.18S WCI  12
$$

 *****  WEATHER ACROSS CENTRAL AND WESTERN NORTH DAKOTA  *****

CITY           SKY/WX    TMP DP  RH WIND       PRES   REMARKS
JAMESTOWN      CLOUDY    23  21  92 S12       30.05F WCI  12
BISMARCK       CLOUDY    28  26  92 S5        30.01F WCI  23
MINOT          CLOUDY    24  20  84 E3        29.96F
MINOT AFB      CLOUDY    23  23 100 E5        29.96F WCI  17
GARRISON         N/A     28  25  88 S6        29.96S WCI  22
WILLISTON      CLOUDY    28  27  96 S3        29.92F FOG
DICKINSON      CLEAR     24  20  84 SW6       29.91S WCI  17
HETTINGER      CLEAR     22  19  89 CALM      29.96S
$$

 *****  OTHER OBSERVATIONS NORTHEAST NORTH DAKOTA  *****

CITY           SKY/WX    TMP DP  RH WIND       PRES   REMARKS
WALHALLA         N/A     18  18 100 S8        30.11S WCI   7
LANGDON        CLOUDY    19  18  93 S12       30.04S FOG     WCI   7
CAVALIER       CLOUDY    19  16  86 S9        30.12S WCI   9
GRAFTON        NOT AVBL
CANDO          CLOUDY    21  19  93 S7        30.03F FOG     WCI  13
FORT TOTTEN      N/A     21  19  93 S8        29.95  WCI  11
ROLLA          FOG       19  19 100 S10       30.00F VSB 1/2 WCI   8
RUGBY          MOCLDY    23  23 100 S6        30.00F FOG     WCI  16
 ***** THE ABOVE OBSERVATIONS ARE NON NWS ARE NOT QUALITY
        CONTROLLED AND MAY MIS-REPORT RAIN FOR SNOW...
$$

 *****  OTHER OBSERVATIONS SOUTHEAST NORTH DAKOTA *****

CITY           SKY/WX    TMP DP  RH WIND       PRES   REMARKS
COOPERSTOWN    NOT AVBL
VALLEY CITY    CLOUDY    19  19 100 S10       30.09F WCI   8
OAKES            N/A     25  25 100 S9        30.10S WCI  15
GWINNER        MOCLDY    25  25 100 MISG      30.13S
BUFFALO        NOT AVBL
WYNDMERE         N/A     21  19  93 SE8         N/A  WCI  12
 ***** THE ABOVE OBSERVATIONS ARE NON NWS ARE NOT QUALITY
       CONTROLLED AND MAY MIS-REPORT RAIN FOR SNOW...
$$

  *****  WEATHER ACROSS NORTHERN MINNESOTA  *****

CITY           SKY/WX    TMP DP  RH WIND       PRES   REMARKS
FLAG ISLAND    CLOUDY    18  14  86 S12       30.17S WCI   5
WARROAD        CLOUDY    16  10  79 SE6       30.17F WCI   7
ROSEAU         CLOUDY    19  14  79 S10       30.16S WCI   8
HALLOCK        CLOUDY    21  18  86 S13       30.15R WCI   9
THF RVR FALLS  CLOUDY    21  18  86 S9        30.15S WCI  11
HALSTAD          N/A     21  14  75 S14         N/A  WCI   8
FOSSTON        CLOUDY    18  14  86 S6        30.16S WCI   9
BAUDETTE       CLOUDY    19  14  81 S8        30.18S WCI   9
WASKISH        CLOUDY    19  16  86 CALM      30.19S
CROOKSTON      CLOUDY    21  18  86 S12       30.17S WCI   9
$$
  *****  WEATHER ACROSS CENTRAL AND WEST MINNESOTA  *****

CITY           SKY/WX    TMP DP  RH WIND       PRES   REMARKS
BEMIDJI        CLOUDY    18  15  88 SE8       30.17S WCI   7
PARK RAPIDS    CLOUDY    19  14  81 SE9       30.17S WCI   8
WADENA         CLOUDY    18  14  86 NW7       30.19R WCI   8
DETROIT LAKES  MOCLDY    21  18  86 SE10      30.17S WCI  10
MOORHEAD       CLOUDY    21  19  93 S15       30.18S WCI   8
FERGUS FALLS   CLOUDY    19  14  79 S13       30.21S WCI   7
ELBOW LAKE     CLOUDY    19  15  86 SE12      30.18S WCI   6
MORRIS MN      CLEAR     21  18  86 SE10      30.18S WCI  10
STAPLES        CLOUDY    18  14  86 S6        30.20S WCI   9
WHEATON        CLOUDY    19  16  86 SE10      30.20S WCI   8
$$
  *****  WEATHER ELSEWHERE ACROSS MINNESOTA  *****

CITY           SKY/WX    TMP DP  RH WIND       PRES   REMARKS
DULUTH         CLOUDY    23  18  81 S6        30.21S WCI  16
INTRNTL FALLS  CLOUDY    20  17  88 SE5       30.19F WCI  13
ELY            CLOUDY    21  19  93 CALM      30.21R
CLOQUET        CLOUDY    21  18  86 S3        30.22S
BRAINERD       CLOUDY    18  14  84 S6        30.23R WCI  10
HIBBING        CLOUDY    23  16  74 S3        30.20F
ALEXANDRIA     CLOUDY    19  14  81 SE13      30.19S WCI   6
SAINT CLOUD    CLOUDY    21  14  74 S6        30.24R WCI  13
MINNEAPOLIS    CLOUDY    21  15  78 S6        30.27S WCI  13
$$

  *****  WEATHER ACROSS SOUTH DAKOTA  *****

CITY           SKY/WX    TMP DP  RH WIND       PRES   REMARKS
SIOUX FALLS    CLOUDY    27  23  85 S8        30.17S WCI  19
BROOKINGS      NOT AVBL
WATERTOWN      CLOUDY    24  22  91 S9        30.12S FOG     WCI  14
HURON          CLOUDY    27  24  89 S8        30.13S WCI  19
SISSETON         N/A     21  20  96 S12       30.15S WCI   9
ABERDEEN       CLOUDY    27  23  85 S10       30.12S WCI  17
MITCHELL       CLOUDY    28  25  88 S9        30.15F WCI  19
PIERRE         CLEAR     23  21  92 S3        30.06F
MOBRIDGE       CLEAR     23  21  92 SE8       30.02F WCI  14
RAPID CITY     CLEAR     21  19  92 W3        30.01S
$$

  *****  SOME WEATHER IN NEARBY STATES *****

CITY           SKY/WX    TMP DP  RH WIND       PRES   REMARKS
GLASGOW MT     PTCLDY    24  21  88 S3        29.90S FOG
GREAT FALLS MT CLEAR     36  27  69 SW22      29.89F
CHEYENNE WY    MOCLDY    28  15  58 W9        30.06S WCI  19
SCOTTSBLUFF NE CLOUDY    12   8  84 NE3       30.08S
OMAHA NE       CLOUDY    31  27  85 S7        30.25S WCI  24
DES MOINES IA  CLOUDY    28  22  78 SE6       30.27R WCI  22
DAVENPORT IA   MOCLDY    20  15  81 CALM      30.29R
CHICAGO IL     CLOUDY    28  20  71 NW5       30.24F WCI  23
EAU CLAIRE WI  CLOUDY    24  18  77 SE5       30.26S WCI  18
LA CROSSE WI   CLOUDY    26  19  74 S5        30.29R WCI  20
$$

  *****  SOME NATIONAL WEATHER *****

CITY           SKY/WX    TMP DP  RH WIND       PRES   REMARKS
LA GUARDIA NY  PTCLDY    38  27  64 NW15      29.97S
RALEIGH NC     PTCLDY    39  28  64 CALM      30.11R
ATLANTA GA     MOCLDY    42  33  70 NW6       30.15S
NEW ORLEANS LA LGT RAIN  58  53  84 E8        30.13F
OKLAHOMA CITY  CLOUDY    41  38  89 NE6       30.21R FOG
ALBUQUERQUE NM MOCLDY    39  28  64 N3        30.14R
SALT LAKE CITY MOCLDY    34  29  82 SE7       30.18R
LOS ANGELES CA PTCLDY    58  51  78 N3        30.21R
BOISE ID       MOCLDY    41  33  73 SE8       30.07F
SEATTLE WA     LGT RAIN  47  40  76 E10       29.73F
$$

*** WEATHER ACROSS MANITOBA...SASKATCHEWAN AND ONTARIO ***
                ***ONTARIO***

CITY           SKY/WX    TMP DP  RH WIND       PRES   REMARKS
GERALDTON      CLEAR     -6  -9  84 SW1       30.26R
THUNDER BAY    CLEAR      1  -2  85 SW6       30.31S WCI -10
SIOUX LOOKOUT  FLURRIES  10   9  92 SE8       30.22S WCI  -1
TORONTO        CLOUDY    25  21  86 N12       30.11R WCI  14
BIG TROUT LK   CLEAR      1   0  92 SW8       30.17S WCI -12
PICKLE LAKE    NOT AVBL
DRYDEN         CLOUDY    18  16  93 S6        30.19S WCI   9
KENORA         NOT AVBL
$$
                *** MANITOBA***

CITY           SKY/WX    TMP DP  RH WIND       PRES   REMARKS
BRANDON        FLURRIES  19  16  86 S5        30.02F WCI  13
DAUPHIN        CLOUDY    16  12  86 S3        30.02F
ISLAND LAKE    CLEAR      9   5  85 SE6       30.09F WCI  -1
PILOT MOUND      N/A     19  18  93 S10         N/A  WCI   8
THE PAS        NOT AVBL
THOMPSON       FLURRIES   7   3  85 S6        29.99F WCI  -3
WINNIPEG       CLOUDY    19  14  79 S13G24    30.13F WCI   7
LYNN LAKE      FLURRIES  14  12  92 SW5       29.88S WCI   6
GILLAM         LGT SNOW   5   1  85 SW8       30.03S WCI  -8
$$
                ***SASKATCHEWAN***

CITY           SKY/WX    TMP DP  RH WIND       PRES   REMARKS
ESTEVAN        LGT SNOW  25  23  93 SW3       29.93S FOG
KINDERSLEY     FOG       12  10  92 VRB2      29.88S VSB 1/8
LLOYDMINSTER   NOT AVBL
PRINCE ALBERT  FLURRIES  19  18  93 W9        29.90S WCI   9
REGINA         CLOUDY    25  23  93 SW7       29.90S FOG     WCI  17
YORKTON        CLOUDY    18  16  93 SE8       29.93F WCI   7
N. BATTLEFORD  FOG       18  18 100 W7        29.92R VSB 1   WCI   8


USA.gov is the U.S. government's official web portal to all federal, state and local government web resources and services.